Location: Rounton
(54.4000°N, 1.3500°W)
Time: 00:01:25
(UTC+01:00)

Vanguard 1 - Pass Details

Date: 22 February 2024
Orbit: 653 x 3825 km, 34.2° (Epoch: 22 April)

Event Time Altitude Azimuth Distance (km) Brightness Sun altitude
Rises 18:24:37 0° 186° (S) 5,594 14.1 -9.1°
Reaches altitude 10° 18:29:39 10° 169° (S) 5,136 13.7 -9.8°
Maximum altitude 18:39:03 19° 132° (SE) 5,268 13.4 -11.2°
Enters shadow 18:48:42 12° 103° (ESE) 6,368 13.5 -12.6°
Drops below altitude 10° 18:50:54 10° 98° (E) 6,685 - -12.9°
Sets 18:59:03 0° 84° (E) 7,943 - -14.1°
